Regional Weather Roundup
Issued by NWS

Home | Current Version | Previous Version | Graphics & Text | Print | Product List | Glossary On
Versions: 1 2 3 4 5 6 7 8 9 10 11 12 13 14 15 16 17 18 19 20 21 22 23 24 25 26 27 28 29 30 31 32 33 34 35 36 37 38 39 40 41 42 43 44 45 46 47 48 49 50
000
ASUS43 KLSX 041610
RWRMO

WEATHER SUMMARY FOR MISSOURI
NATIONAL WEATHER SERVICE SPRINGFIELD MO
1100 AM CDT TUE AUG 04 2015

NOTE: "FAIR" INDICATES FEW OR NO CLOUDS BELOW 12,000 FEET WITH NO
       SIGNIFICANT WEATHER AND/OR OBSTRUCTIONS TO VISIBILITY.
       CURRENT SKY AND/OR WEATHER CONDITIONS ARE NOT AVAILABLE FOR
       CHILLICOTHE AND FARMINGTON.

MOZ001>031-035>038-043-044-053-054-041700-
...NORTHERN AND WESTERN MISSOURI...

CITY           SKY/WX    TMP DP  RH WIND       PRES   REMARKS
KANSAS CTY INT CLOUDY    83  71  67 CALM      30.00R
KANSAS C DTWN  PTSUNNY   87  70  56 N3        29.97S HX  92
LEE`S SUMMIT   PTSUNNY   84  69  60 CALM      29.99S
ST JOSEPH      PTSUNNY   74  67  78 NE13      30.03R
CHILLICOTHE      N/A     74  68  81 N7        30.09R
KIRKSVILLE     RAIN      67  64  90 W8        30.09R FOG

$$
MOZ066>068-077>081-088>096-101>105-041700-
...SOUTHWEST MISSOURI...

CITY           SKY/WX    TMP DP  RH WIND       PRES   REMARKS
SPRINGFIELD    PTSUNNY   86  68  54 S10       30.00F
JOPLIN         CLOUDY    85  66  53 SW12      30.01R

$$
MOZ032>034-039>042-045>050-055>058-069>072-041700-
...CENTRAL MISSOURI...

CITY           SKY/WX    TMP DP  RH WIND       PRES   REMARKS
COLUMBIA       SUNNY     81  71  71 S7        30.00S
JEFFERSON CITY MOSUNNY   81  70  69 VRB3      29.99R
ROLLA          PTSUNNY   83  71  67 S6        30.00S
SEDALIA        MOSUNNY   83  71  67 CALM      30.01R
WHITEMAN AFB   PTSUNNY   83  69  61 VRB2      29.98S
WARRENSBURG    PTSUNNY   82  68  61 CALM      29.99S
OSAGE BEACH    PTSUNNY   84  68  58 CALM      30.00S

$$
MOZ051-052-059>065-041700-
...EAST CENTRAL MISSOURI...

CITY           SKY/WX    TMP DP  RH WIND       PRES   REMARKS
ST LOUIS INTL  PTSUNNY   85  67  54 S10       29.99F
SPIRIT OF STL  PTSUNNY   82  70  66 VRB6      29.97S
ST CHARLES     PTSUNNY   82  68  62 E7        29.98F

$$
MOZ072>076-082>087-097>100-106>115-041700-
...SOUTH CENTRAL AND SOUTHEAST MISSOURI...

CITY           SKY/WX    TMP DP  RH WIND       PRES   REMARKS
CAPE GIRARDEAU MOSUNNY   88  76  67 SW7       29.98S HX  99
FARMINGTON     MOSUNNY   86  72  62 W7        30.05S HX  92
POPLAR BLUFF   MOSUNNY   89  74  60 MISG      29.98R HX  98
WEST PLAINS    PTSUNNY   87  69  54 SW9       30.04S HX  91

$$



USA.gov is the U.S. government's official web portal to all federal, state and local government web resources and services.